Home > Weather > Westerstede > Past weeks

Flag for Germany Weather for the Past 2 Weeks in Westerstede, Lower Saxony, Germany

Now
37 °F

Light rain. Fog.


Feels Like: 27 °F
Forecast: 28 / 34 °F
Wind: 21 mph from Northeast

Location: Wittmundhaven

Current Time: Feb 14, 2016 at 6:48:21 PM

Latest Report: Feb 14, 2016 at 6:20 PM


Visibility: 3 mi

Pressure: 29.42 "Hg

Humidity: 87%

Dew point: 34 °F

Location of WesterstedeLocation

Historic Weather in Westerstede — Graph

°F

Westerstede Temperature Yesterday

Maximum temperature yesterday: 36 °F (at 2:20 PM)
Minimum temperature yesterday: 32 °F (at 12:20 AM)
Average temperature yesterday: 34 °F

High & Low Weather Summary for the Past Weeks

 TemperatureHumidityPressure
High52 °F (Feb 1, 11:46 AM)100% (Feb 1, 12:20 AM)30.21 "Hg (Feb 1, 12:20 AM)
Low30 °F (Feb 12, 5:20 AM)62% (Feb 2, 1:20 PM)28.88 "Hg (Feb 9, 7:20 PM)
Average41 °F85%29.56 "Hg
* Reported Jan 30 5:20 PM — Feb 14 5:20 PM, Westerstede, Weather by CustomWeather, © 2016

Note: Actual official high and low records may vary slightly from our data, if they occured in-between our weather recording intervals... More about our weather records

Advertising

Westerstede Weather History for the Previous 24 Hours

 ConditionsComfort  
Time TempWeatherWind HumidityBarometerVisibility
5:20 PM
Sun, Feb 14
37 °FLight rain. Fog.20 mph87%29.39 "Hg3 mi
4:52 PM37 °FLight rain. Partly sunny.20 mph87%29.36 "Hg4 mi
4:20 PM37 °FLight rain. Broken clouds.16 mph87%29.33 "Hg4 mi
3:20 PM37 °FDrizzle. Fog.20 mph87%29.30 "Hg3 mi
2:20 PM36 °FLight rain. Fog.20 mph93%29.30 "Hg3 mi
1:20 PM36 °FLight rain. Fog.20 mph93%29.30 "Hg2 mi
12:20 PM36 °FLight rain. Fog.21 mph93%29.27 "Hg2 mi
11:20 AM34 °FLight rain. Fog.18 mph100%29.27 "Hg2 mi
10:20 AM34 °FLight snow. Fog.16 mph93%29.24 "Hg1 mi
9:20 AM34 °FSnow. Fog.20 mph93%29.24 "Hg1 mi
8:20 AM34 °FLight rain. Fog.18 mph93%29.21 "Hg3 mi
7:20 AM36 °FPassing clouds.18 mph87%29.21 "Hg4 mi
6:20 AM36 °FPassing clouds.22 mph87%29.18 "Hg4 mi
5:20 AM37 °FPassing clouds.17 mph87%29.18 "Hg4 mi
4:20 AM37 °FPassing clouds.17 mph87%29.18 "Hg4 mi
3:20 AM36 °FPartly cloudy.17 mph93%29.18 "Hg4 mi
2:20 AM36 °FPartly cloudy.16 mph93%29.18 "Hg4 mi
1:20 AM36 °FPartly cloudy.18 mph93%29.18 "Hg4 mi
12:20 AM36 °FPassing clouds.20 mph93%29.21 "Hg5 mi
11:20 PM
Sat, Feb 13
36 °FPassing clouds.20 mph87%29.21 "Hg5 mi
10:20 PM36 °FPassing clouds.18 mph87%29.24 "Hg5 mi
9:50 PM36 °FPassing clouds.17 mph87%29.24 "Hg5 mi
9:20 PM36 °FPartly cloudy.17 mph87%29.24 "Hg5 mi
8:20 PM36 °FPartly cloudy.16 mph87%29.24 "Hg5 mi
7:20 PM36 °FPartly cloudy.16 mph87%29.27 "Hg5 mi
6:20 PM36 °FPassing clouds.16 mph87%29.27 "Hg6 mi
Weather by CustomWeather, © 2016

See weather overviewHow to use our weather pages